,,PressureMeas_1m,,PRMeasQMR101_1,,RHStat155_1m_1,,SRMeasQMS101R_1m,,TAStat155_1m_1,,GenWind_1,,GenWind_1,
2019-01-09, 00:00:06,VALID,918.876,VALID,0.0,VALID,90.233,VALID,0.009,VALID,21.435,INVALID,360.0,VALID,0.0,
2019-01-09, 00:01:06,VALID,918.87,VALID,0.0,VALID,90.275,VALID,0.004,VALID,21.465,INVALID,360.0,VALID,0.0,
2019-01-09, 00:02:06,VALID,918.844,VALID,0.0,VALID,90.121,VALID,0.005,VALID,21.524,INVALID,360.0,VALID,0.0,
2019-01-09, 00:03:06,VALID,918.836,VALID,0.0,VALID,90.097,VALID,0.017,VALID,21.52,INVALID,360.0,VALID,0.0,
2019-01-09, 00:04:06,VALID,918.811,VALID,0.0,VALID,90.363,VALID,0.007,VALID,21.479,INVALID,360.0,VALID,0.0,
2019-01-09, 00:05:06,VALID,918.794,VALID,0.0,VALID,90.864,VALID,0.007,VALID,21.417,INVALID,360.0,VALID,0.0,
2019-01-09, 00:06:06,VALID,918.787,VALID,0.0,VALID,91.308,VALID,0.005,VALID,21.375,INVALID,360.0,VALID,0.0,
2019-01-09, 00:07:06,VALID,918.75,VALID,0.0,VALID,91.509,VALID,0.005,VALID,21.365,INVALID,360.0,VALID,0.0,
2019-01-09, 00:08:06,VALID,918.729,VALID,0.0,VALID,91.628,VALID,0.008,VALID,21.352,INVALID,360.0,VALID,0.0,
2019-01-09, 00:09:06,VALID,918.706,VALID,0.0,VALID,91.781,VALID,0.019,VALID,21.337,INVALID,360.0,VALID,0.0,
2019-01-09, 00:10:06,VALID,918.686,VALID,0.0,VALID,91.992,VALID,0.011,VALID,21.296,INVALID,360.0,VALID,0.0,
2019-01-09, 00:11:06,VALID,918.671,VALID,0.0,VALID,92.178,VALID,0.019,VALID,21.269,INVALID,360.0,VALID,0.0,
2019-01-09, 00:12:06,VALID,918.641,VALID,0.0,VALID,92.09,VALID,-0.011,VALID,21.306,INVALID,360.0,VALID,0.0,
2019-01-09, 00:13:06,VALID,918.637,VALID,0.0,VALID,92.22,VALID,-0.009,VALID,21.283,INVALID,360.0,VALID,0.0,
2019-01-09, 00:14:06,VALID,918.622,VALID,0.0,VALID,92.465,VALID,-0.018,VALID,21.22,INVALID,360.0,VALID,0.0,
2019-01-09, 00:15:06,VALID,918.634,VALID,0.0,VALID,92.57,VALID,-0.018,VALID,21.199,INVALID,360.0,VALID,0.0,
2019-01-09, 00:16:06,VALID,918.617,VALID,0.0,VALID,92.179,VALID,-0.008,VALID,21.271,INVALID,360.0,VALID,0.0,
2019-01-09, 00:17:06,VALID,918.605,VALID,0.0,VALID,91.946,VALID,-0.002,VALID,21.329,INVALID,360.0,VALID,0.0,
2019-01-09, 00:18:06,VALID,918.587,VALID,0.0,VALID,92.069,VALID,-0.002,VALID,21.323,INVALID,360.0,VALID,0.0,
2019-01-09, 00:19:06,VALID,918.569,VALID,0.0,VALID,92.147,VALID,0.006,VALID,21.292,INVALID,360.0,VALID,0.0,
2019-01-09, 00:20:06,VALID,918.562,VALID,0.0,VALID,92.374,VALID,0.009,VALID,21.258,INVALID,360.0,VALID,0.0,
2019-01-09, 00:21:06,VALID,918.541,VALID,0.0,VALID,92.693,VALID,-0.005,VALID,21.199,INVALID,360.0,VALID,0.0,
2019-01-09, 00:22:06,VALID,918.524,VALID,0.0,VALID,92.875,VALID,-0.008,VALID,21.15,INVALID,360.0,VALID,0.0,
2019-01-09, 00:23:06,VALID,918.508,VALID,0.0,VALID,92.746,VALID,0.002,VALID,21.164,INVALID,360.0,VALID,0.0,
2019-01-09, 00:24:06,VALID,918.509,VALID,0.0,VALID,92.113,VALID,-0.001,VALID,21.233,INVALID,360.0,VALID,0.0,
2019-01-09, 00:25:06,VALID,918.495,VALID,0.0,VALID,91.075,VALID,-0.01,VALID,21.344,INVALID,360.0,VALID,0.0,
2019-01-09, 00:26:06,VALID,918.454,VALID,0.0,VALID,90.413,VALID,-0.015,VALID,21.432,INVALID,360.0,VALID,0.0,
2019-01-09, 00:27:06,VALID,918.435,VALID,0.0,VALID,90.069,VALID,-0.024,VALID,21.49,INVALID,360.0,VALID,0.0,
2019-01-09, 00:28:06,VALID,918.417,VALID,0.0,VALID,89.535,VALID,0.002,VALID,21.584,INVALID,360.0,VALID,0.0,
2019-01-09, 00:29:06,VALID,918.397,VALID,0.0,VALID,89.168,VALID,0.019,VALID,21.658,INVALID,360.0,VALID,0.0,
2019-01-09, 00:30:06,VALID,918.367,VALID,0.0,VALID,89.375,VALID,0.01,VALID,21.613,INVALID,360.0,VALID,0.0,
2019-01-09, 00:31:06,VALID,918.369,VALID,0.0,VALID,89.519,VALID,0.009,VALID,21.557,INVALID,360.0,VALID,0.0,
2019-01-09, 00:32:06,VALID,918.358,VALID,0.0,VALID,89.726,VALID,0.007,VALID,21.499,INVALID,360.0,VALID,0.0,
2019-01-09, 00:33:06,VALID,918.335,VALID,0.0,VALID,89.845,VALID,0.016,VALID,21.462,INVALID,360.0,VALID,0.0,
2019-01-09, 00:34:06,VALID,918.327,VALID,0.0,VALID,89.976,VALID,0.003,VALID,21.451,INVALID,360.0,VALID,0.0,
2019-01-09, 00:35:06,VALID,918.294,VALID,0.0,VALID,89.989,VALID,-0.007,VALID,21.476,INVALID,360.0,VALID,0.0,
2019-01-09, 00:36:06,VALID,918.299,VALID,0.0,VALID,90.08,VALID,0.007,VALID,21.455,INVALID,360.0,VALID,0.0,
2019-01-09, 00:37:06,VALID,918.275,VALID,0.0,VALID,90.247,VALID,-0.006,VALID,21.429,INVALID,360.0,VALID,0.0,
2019-01-09, 00:38:06,VALID,918.287,VALID,0.0,VALID,89.956,VALID,0.014,VALID,21.475,INVALID,360.0,VALID,0.0,
2019-01-09, 00:39:06,VALID,918.267,VALID,0.0,VALID,89.56,VALID,-0.007,VALID,21.521,INVALID,360.0,VALID,0.0,
2019-01-09, 00:40:06,VALID,918.271,VALID,0.0,VALID,89.405,VALID,-0.005,VALID,21.545,INVALID,360.0,VALID,0.0,
2019-01-09, 00:41:06,VALID,918.287,VALID,0.0,VALID,88.668,VALID,-0.003,VALID,21.611,INVALID,360.0,VALID,0.0,
2019-01-09, 00:42:06,VALID,918.28,VALID,0.0,VALID,88.125,VALID,0.002,VALID,21.755,INVALID,360.0,VALID,0.0,
2019-01-09, 00:43:06,VALID,918.248,VALID,0.0,VALID,87.705,VALID,0.006,VALID,21.831,INVALID,360.0,VALID,0.0,
2019-01-09, 00:44:06,VALID,918.242,VALID,0.0,VALID,87.934,VALID,-0.001,VALID,21.787,INVALID,360.0,VALID,0.0,
2019-01-09, 00:45:06,VALID,918.208,VALID,0.0,VALID,88.438,VALID,-0.005,VALID,21.674,INVALID,360.0,VALID,0.0,
2019-01-09, 00:46:06,VALID,918.196,VALID,0.0,VALID,88.774,VALID,0.011,VALID,21.618,INVALID,360.0,VALID,0.0,
2019-01-09, 00:47:06,VALID,918.191,VALID,0.0,VALID,88.735,VALID,-0.009,VALID,21.622,INVALID,360.0,VALID,0.0,
2019-01-09, 00:48:06,VALID,918.175,VALID,0.0,VALID,88.521,VALID,0.016,VALID,21.687,INVALID,360.0,VALID,0.0,
2019-01-09, 00:49:06,VALID,918.19,VALID,0.0,VALID,88.34,VALID,-0.007,VALID,21.704,INVALID,360.0,VALID,0.0,
2019-01-09, 00:50:06,VALID,918.175,VALID,0.0,VALID,88.47,VALID,0.002,VALID,21.686,INVALID,360.0,VALID,0.0,
2019-01-09, 00:51:06,VALID,918.165,VALID,0.0,VALID,88.693,VALID,0.004,VALID,21.623,INVALID,360.0,VALID,0.0,
2019-01-09, 00:52:06,VALID,918.13,VALID,0.0,VALID,88.815,VALID,-0.004,VALID,21.584,INVALID,360.0,VALID,0.0,
2019-01-09, 00:53:06,VALID,918.116,VALID,0.0,VALID,89.072,VALID,0.008,VALID,21.535,INVALID,360.0,VALID,0.0,
2019-01-09, 00:54:06,VALID,918.087,VALID,0.0,VALID,89.095,VALID,-0.005,VALID,21.534,INVALID,360.0,VALID,0.0,
2019-01-09, 00:55:06,VALID,918.091,VALID,0.0,VALID,89.198,VALID,-0.013,VALID,21.496,INVALID,360.0,VALID,0.0,
2019-01-09, 00:56:06,VALID,918.067,VALID,0.0,VALID,89.331,VALID,-0.01,VALID,21.442,INVALID,360.0,VALID,0.0,
2019-01-09, 00:57:06,VALID,918.047,VALID,0.0,VALID,89.3,VALID,-0.002,VALID,21.467,INVALID,360.0,VALID,0.0,
2019-01-09, 00:58:06,VALID,918.04,VALID,0.0,VALID,88.959,VALID,0.0,VALID,21.545,INVALID,360.0,VALID,0.0,
2019-01-09, 00:59:06,VALID,918.016,VALID,0.0,VALID,89.179,VALID,0.011,VALID,21.566,INVALID,360.0,VALID,0.0,
2019-01-09, 01:00:06,VALID,918.015,VALID,0.0,VALID,89.592,VALID,-0.004,VALID,21.502,INVALID,360.0,VALID,0.0,
2019-01-09, 01:01:06,VALID,918.011,VALID,0.0,VALID,90.062,VALID,-0.002,VALID,21.427,INVALID,360.0,VALID,0.0,
2019-01-09, 01:02:06,VALID,917.987,VALID,0.0,VALID,90.499,VALID,0.007,VALID,21.345,INVALID,360.0,VALID,0.0,
2019-01-09, 01:03:06,VALID,917.982,VALID,0.0,VALID,90.929,VALID,0.001,VALID,21.299,INVALID,360.0,VALID,0.0,
2019-01-09, 01:04:06,VALID,917.983,VALID,0.0,VALID,91.024,VALID,0.0,VALID,21.272,INVALID,360.0,VALID,0.0,
2019-01-09, 01:05:06,VALID,917.966,VALID,0.0,VALID,91.032,VALID,0.001,VALID,21.261,INVALID,360.0,VALID,0.0,
2019-01-09, 01:06:06,VALID,917.962,VALID,0.0,VALID,91.234,VALID,0.006,VALID,21.249,INVALID,360.0,VALID,0.0,
2019-01-09, 01:07:06,VALID,917.954,VALID,0.0,VALID,91.452,VALID,0.008,VALID,21.24,INVALID,360.0,VALID,0.0,
2019-01-09, 01:08:06,VALID,917.941,VALID,0.0,VALID,91.282,VALID,0.013,VALID,21.269,INVALID,360.0,VALID,0.0,
2019-01-09, 01:09:06,VALID,917.921,VALID,0.0,VALID,91.225,VALID,-0.003,VALID,21.272,INVALID,360.0,VALID,0.0,
2019-01-09, 01:10:06,VALID,917.929,VALID,0.0,VALID,91.274,VALID,-0.001,VALID,21.25,INVALID,360.0,VALID,0.0,
2019-01-09, 01:11:06,VALID,917.904,VALID,0.0,VALID,91.423,VALID,0.011,VALID,21.226,INVALID,360.0,VALID,0.0,
2019-01-09, 01:12:06,VALID,917.898,VALID,0.0,VALID,91.795,VALID,0.007,VALID,21.182,INVALID,360.0,VALID,0.0,
2019-01-09, 01:13:06,VALID,917.889,VALID,0.0,VALID,92.02,VALID,-0.005,VALID,21.109,INVALID,360.0,VALID,0.0,
2019-01-09, 01:14:06,VALID,917.881,VALID,0.0,VALID,92.315,VALID,-0.002,VALID,21.036,INVALID,360.0,VALID,0.0,
2019-01-09, 01:15:06,VALID,917.87,VALID,0.0,VALID,92.834,VALID,0.016,VALID,20.972,INVALID,360.0,VALID,0.0,
2019-01-09, 01:16:06,VALID,917.867,VALID,0.0,VALID,93.185,VALID,0.027,VALID,20.9,INVALID,360.0,VALID,0.0,
2019-01-09, 01:17:06,VALID,917.869,VALID,0.0,VALID,93.632,VALID,0.002,VALID,20.857,INVALID,360.0,VALID,0.0,
2019-01-09, 01:18:06,VALID,917.871,VALID,0.0,VALID,93.857,VALID,-0.017,VALID,20.808,INVALID,360.0,VALID,0.0,
2019-01-09, 01:19:06,VALID,917.88,VALID,0.0,VALID,94.125,VALID,-0.001,VALID,20.774,INVALID,360.0,VALID,0.0,
2019-01-09, 01:20:06,VALID,917.871,VALID,0.0,VALID,94.329,VALID,0.009,VALID,20.75,INVALID,360.0,VALID,0.0,
2019-01-09, 01:21:06,VALID,917.874,VALID,0.0,VALID,94.517,VALID,-0.003,VALID,20.759,INVALID,360.0,VALID,0.0,
2019-01-09, 01:22:06,VALID,917.864,VALID,0.0,VALID,94.469,VALID,-0.017,VALID,20.771,INVALID,360.0,VALID,0.0,
2019-01-09, 01:23:06,VALID,917.865,VALID,0.0,VALID,94.489,VALID,-0.005,VALID,20.77,INVALID,360.0,VALID,0.0,
2019-01-09, 01:24:06,VALID,917.842,VALID,0.0,VALID,94.494,VALID,-0.011,VALID,20.754,INVALID,360.0,VALID,0.0,
2019-01-09, 01:25:06,VALID,917.843,VALID,0.0,VALID,94.455,VALID,0.006,VALID,20.708,INVALID,360.0,VALID,0.0,
2019-01-09, 01:26:06,VALID,917.825,VALID,0.0,VALID,94.628,VALID,0.01,VALID,20.656,INVALID,360.0,VALID,0.0,
2019-01-09, 01:27:06,VALID,917.85,VALID,0.0,VALID,94.909,VALID,-0.002,VALID,20.631,INVALID,360.0,VALID,0.0,
2019-01-09, 01:28:06,VALID,917.829,VALID,0.0,VALID,94.967,VALID,0.004,VALID,20.613,INVALID,360.0,VALID,0.0,
2019-01-09, 01:29:06,VALID,917.814,VALID,0.0,VALID,95.156,VALID,-0.006,VALID,20.63,INVALID,360.0,VALID,0.0,
2019-01-09, 01:30:06,VALID,917.824,VALID,0.0,VALID,95.115,VALID,-0.003,VALID,20.672,INVALID,360.0,VALID,0.0,
2019-01-09, 01:31:06,VALID,917.836,VALID,0.0,VALID,94.853,VALID,0.006,VALID,20.659,INVALID,360.0,VALID,0.0,
2019-01-09, 01:32:06,VALID,917.842,VALID,0.0,VALID,94.9,VALID,-0.006,VALID,20.625,INVALID,360.0,VALID,0.0,
2019-01-09, 01:33:06,VALID,917.831,VALID,0.0,VALID,95.106,VALID,0.019,VALID,20.603,INVALID,360.0,VALID,0.0,
2019-01-09, 01:34:06,VALID,917.829,VALID,0.0,VALID,95.241,VALID,-0.003,VALID,20.601,INVALID,360.0,VALID,0.0,
2019-01-09, 01:35:06,VALID,917.812,VALID,0.0,VALID,95.375,VALID,0.026,VALID,20.611,INVALID,360.0,VALID,0.0,
2019-01-09, 01:36:06,VALID,917.796,VALID,0.0,VALID,95.308,VALID,-0.015,VALID,20.608,INVALID,360.0,VALID,0.0,
2019-01-09, 01:37:06,VALID,917.774,VALID,0.0,VALID,95.342,VALID,0.005,VALID,20.591,INVALID,360.0,VALID,0.0,
2019-01-09, 01:38:06,VALID,917.762,VALID,0.0,VALID,95.393,VALID,-0.001,VALID,20.584,INVALID,360.0,VALID,0.0,
2019-01-09, 01:39:06,VALID,917.757,VALID,0.0,VALID,95.358,VALID,0.0,VALID,20.594,INVALID,360.0,VALID,0.0,
2019-01-09, 01:40:06,VALID,917.745,VALID,0.0,VALID,95.246,VALID,-0.004,VALID,20.57,INVALID,360.0,VALID,0.0,
2019-01-09, 01:41:06,VALID,917.731,VALID,0.0,VALID,95.358,VALID,0.008,VALID,20.53,INVALID,360.0,VALID,0.0,
2019-01-09, 01:42:06,VALID,917.723,VALID,0.0,VALID,95.526,VALID,-0.015,VALID,20.489,INVALID,360.0,VALID,0.0,
2019-01-09, 01:43:06,VALID,917.727,VALID,0.0,VALID,95.735,VALID,-0.018,VALID,20.45,INVALID,360.0,VALID,0.0,
2019-01-09, 01:44:06,VALID,917.719,VALID,0.0,VALID,95.868,VALID,-0.005,VALID,20.419,INVALID,360.0,VALID,0.0,
2019-01-09, 01:45:06,VALID,917.733,VALID,0.0,VALID,96.023,VALID,0.006,VALID,20.42,INVALID,360.0,VALID,0.0,
2019-01-09, 01:46:06,VALID,917.742,VALID,0.0,VALID,95.954,VALID,-0.004,VALID,20.43,INVALID,360.0,VALID,0.0,
2019-01-09, 01:47:06,VALID,917.736,VALID,0.0,VALID,95.703,VALID,-0.004,VALID,20.421,INVALID,360.0,VALID,0.0,
2019-01-09, 01:48:06,VALID,917.742,VALID,0.0,VALID,95.603,VALID,-0.009,VALID,20.417,INVALID,360.0,VALID,0.0,
2019-01-09, 01:49:06,VALID,917.752,VALID,0.0,VALID,95.539,VALID,0.002,VALID,20.436,INVALID,360.0,VALID,0.0,
2019-01-09, 01:50:06,VALID,917.745,VALID,0.0,VALID,95.373,VALID,0.005,VALID,20.454,INVALID,360.0,VALID,0.0,
2019-01-09, 01:51:06,VALID,917.74,VALID,0.0,VALID,95.152,VALID,-0.004,VALID,20.447,INVALID,360.0,VALID,0.0,
2019-01-09, 01:52:06,VALID,917.736,VALID,0.0,VALID,95.138,VALID,0.004,VALID,20.443,INVALID,360.0,VALID,0.0,
2019-01-09, 01:53:06,VALID,917.755,VALID,0.0,VALID,95.109,VALID,0.003,VALID,20.447,INVALID,360.0,VALID,0.0,
2019-01-09, 01:54:06,VALID,917.758,VALID,0.0,VALID,95.198,VALID,0.002,VALID,20.466,INVALID,360.0,VALID,0.0,
2019-01-09, 01:55:06,VALID,917.771,VALID,0.0,VALID,95.17,VALID,-0.011,VALID,20.485,INVALID,360.0,VALID,0.0,
2019-01-09, 01:56:06,VALID,917.759,VALID,0.0,VALID,95.067,VALID,0.003,VALID,20.489,INVALID,360.0,VALID,0.0,
2019-01-09, 01:57:06,VALID,917.745,VALID,0.0,VALID,95.081,VALID,-0.005,VALID,20.477,INVALID,360.0,VALID,0.0,
2019-01-09, 01:58:06,VALID,917.737,VALID,0.0,VALID,95.208,VALID,-0.013,VALID,20.456,INVALID,360.0,VALID,0.0,
2019-01-09, 01:59:06,VALID,917.743,VALID,0.0,VALID,95.461,VALID,-0.017,VALID,20.459,INVALID,360.0,VALID,0.0,
2019-01-09, 02:00:06,VALID,917.757,VALID,0.0,VALID,95.437,VALID,-0.011,VALID,20.477,INVALID,360.0,VALID,0.0,
2019-01-09, 02:01:06,VALID,917.739,VALID,0.0,VALID,95.275,VALID,-0.013,VALID,20.471,INVALID,360.0,VALID,0.0,
2019-01-09, 02:02:06,VALID,917.743,VALID,0.0,VALID,95.1,VALID,-0.021,VALID,20.46,INVALID,360.0,VALID,0.0,
2019-01-09, 02:03:06,VALID,917.724,VALID,0.0,VALID,95.114,VALID,-0.023,VALID,20.499,INVALID,360.0,VALID,0.0,
2019-01-09, 02:04:06,VALID,917.713,VALID,0.0,VALID,94.975,VALID,-0.022,VALID,20.521,INVALID,360.0,VALID,0.0,
2019-01-09, 02:05:06,VALID,917.702,VALID,0.0,VALID,94.995,VALID,-0.026,VALID,20.52,INVALID,360.0,VALID,0.0,
2019-01-09, 02:06:06,VALID,917.702,VALID,0.0,VALID,94.973,VALID,-0.018,VALID,20.52,INVALID,360.0,VALID,0.0,
2019-01-09, 02:07:06,VALID,917.677,VALID,0.0,VALID,94.656,VALID,-0.018,VALID,20.571,INVALID,360.0,VALID,0.0,
2019-01-09, 02:08:06,VALID,917.664,VALID,0.0,VALID,94.413,VALID,-0.026,VALID,20.616,INVALID,360.0,VALID,0.0,
2019-01-09, 02:09:06,VALID,917.666,VALID,0.0,VALID,94.304,VALID,-0.007,VALID,20.64,INVALID,360.0,VALID,0.0,
2019-01-09, 02:10:06,VALID,917.643,VALID,0.0,VALID,94.184,VALID,-0.018,VALID,20.635,INVALID,360.0,VALID,0.0,
2019-01-09, 02:11:06,VALID,917.631,VALID,0.0,VALID,94.259,VALID,-0.013,VALID,20.648,INVALID,360.0,VALID,0.0,
2019-01-09, 02:12:06,VALID,917.611,VALID,0.0,VALID,94.212,VALID,0.012,VALID,20.649,INVALID,360.0,VALID,0.0,
2019-01-09, 02:13:06,VALID,917.581,VALID,0.0,VALID,94.234,VALID,0.016,VALID,20.657,INVALID,360.0,VALID,0.0,
2019-01-09, 02:14:06,VALID,917.553,VALID,0.0,VALID,94.243,VALID,0.008,VALID,20.659,INVALID,360.0,VALID,0.0,
2019-01-09, 02:15:06,VALID,917.552,VALID,0.0,VALID,94.27,VALID,-0.005,VALID,20.643,INVALID,360.0,VALID,0.0,
2019-01-09, 02:16:06,VALID,917.514,VALID,0.0,VALID,94.49,VALID,0.005,VALID,20.63,INVALID,360.0,VALID,0.0,
2019-01-09, 02:17:06,VALID,917.479,VALID,0.0,VALID,94.526,VALID,0.004,VALID,20.607,INVALID,360.0,VALID,0.0,
2019-01-09, 02:18:06,VALID,917.463,VALID,0.0,VALID,94.507,VALID,0.004,VALID,20.585,INVALID,360.0,VALID,0.0,
2019-01-09, 02:19:06,VALID,917.435,VALID,0.0,VALID,94.493,VALID,0.005,VALID,20.556,INVALID,360.0,VALID,0.0,
2019-01-09, 02:20:06,VALID,917.436,VALID,0.0,VALID,94.47,VALID,0.007,VALID,20.519,INVALID,360.0,VALID,0.0,
2019-01-09, 02:21:06,VALID,917.421,VALID,0.0,VALID,94.742,VALID,0.029,VALID,20.497,INVALID,360.0,VALID,0.0,
2019-01-09, 02:22:06,VALID,917.397,VALID,0.0,VALID,95.061,VALID,0.014,VALID,20.481,INVALID,360.0,VALID,0.0,
2019-01-09, 02:23:06,VALID,917.388,VALID,0.0,VALID,95.267,VALID,-0.004,VALID,20.492,INVALID,360.0,VALID,0.0,
2019-01-09, 02:24:06,VALID,917.401,VALID,0.0,VALID,95.217,VALID,0.015,VALID,20.5,INVALID,360.0,VALID,0.0,
2019-01-09, 02:25:06,VALID,917.411,VALID,0.0,VALID,95.188,VALID,0.015,VALID,20.517,INVALID,360.0,VALID,0.0,
2019-01-09, 02:26:06,VALID,917.421,VALID,0.0,VALID,95.176,VALID,0.001,VALID,20.548,INVALID,360.0,VALID,0.0,
2019-01-09, 02:27:06,VALID,917.425,VALID,0.0,VALID,95.187,VALID,-0.009,VALID,20.592,INVALID,360.0,VALID,0.0,
2019-01-09, 02:28:06,VALID,917.433,VALID,0.0,VALID,95.038,VALID,-0.029,VALID,20.602,INVALID,360.0,VALID,0.0,
2019-01-09, 02:29:06,VALID,917.432,VALID,0.0,VALID,95.101,VALID,-0.042,VALID,20.637,INVALID,360.0,VALID,0.0,
2019-01-09, 02:30:06,VALID,917.422,VALID,0.0,VALID,94.986,VALID,-0.036,VALID,20.656,INVALID,360.0,VALID,0.0,
2019-01-09, 02:31:06,VALID,917.407,VALID,0.0,VALID,94.916,VALID,-0.035,VALID,20.676,INVALID,360.0,VALID,0.0,
2019-01-09, 02:32:06,VALID,917.384,VALID,0.0,VALID,94.741,VALID,-0.019,VALID,20.69,INVALID,360.0,VALID,0.0,
2019-01-09, 02:33:06,VALID,917.367,VALID,0.0,VALID,94.532,VALID,-0.029,VALID,20.687,INVALID,360.0,VALID,0.0,
2019-01-09, 02:34:06,VALID,917.339,VALID,0.0,VALID,94.463,VALID,-0.028,VALID,20.681,INVALID,360.0,VALID,0.0,
2019-01-09, 02:35:06,VALID,917.333,VALID,0.0,VALID,94.371,VALID,-0.027,VALID,20.653,INVALID,360.0,VALID,0.0,
2019-01-09, 02:36:06,VALID,917.315,VALID,0.0,VALID,94.254,VALID,-0.006,VALID,20.6,INVALID,360.0,VALID,0.0,
2019-01-09, 02:37:06,VALID,917.305,VALID,0.0,VALID,94.461,VALID,-0.017,VALID,20.564,INVALID,360.0,VALID,0.0,
2019-01-09, 02:38:06,VALID,917.298,VALID,0.0,VALID,94.576,VALID,-0.021,VALID,20.526,INVALID,360.0,VALID,0.0,
2019-01-09, 02:39:06,VALID,917.303,VALID,0.0,VALID,94.701,VALID,-0.028,VALID,20.478,INVALID,360.0,VALID,0.0,
2019-01-09, 02:40:06,VALID,917.276,VALID,0.0,VALID,95.004,VALID,-0.02,VALID,20.454,INVALID,360.0,VALID,0.0,
2019-01-09, 02:41:06,VALID,917.277,VALID,0.0,VALID,95.283,VALID,0.007,VALID,20.448,INVALID,360.0,VALID,0.0,
2019-01-09, 02:42:06,VALID,917.251,VALID,0.0,VALID,95.328,VALID,0.015,VALID,20.434,INVALID,360.0,VALID,0.0,
2019-01-09, 02:43:06,VALID,917.223,VALID,0.0,VALID,95.286,VALID,-0.008,VALID,20.398,INVALID,360.0,VALID,0.0,
2019-01-09, 02:44:06,VALID,917.196,VALID,0.0,VALID,95.288,VALID,0.006,VALID,20.365,INVALID,360.0,VALID,0.0,
2019-01-09, 02:45:06,VALID,917.171,VALID,0.0,VALID,95.421,VALID,-0.001,VALID,20.335,INVALID,360.0,VALID,0.0,
2019-01-09, 02:46:06,VALID,917.178,VALID,0.0,VALID,95.69,VALID,-0.005,VALID,20.339,INVALID,360.0,VALID,0.0,
2019-01-09, 02:47:06,VALID,917.166,VALID,0.0,VALID,95.858,VALID,-0.009,VALID,20.37,INVALID,360.0,VALID,0.0,
2019-01-09, 02:48:06,VALID,917.138,VALID,0.0,VALID,95.714,VALID,-0.011,VALID,20.403,INVALID,360.0,VALID,0.0,
2019-01-09, 02:49:06,VALID,917.166,VALID,0.0,VALID,95.6,VALID,-0.013,VALID,20.445,INVALID,360.0,VALID,0.0,
2019-01-09, 02:50:07,VALID,917.139,VALID,0.0,VALID,95.516,VALID,-0.017,VALID,20.477,INVALID,360.0,VALID,0.0,
2019-01-09, 02:51:07,VALID,917.132,VALID,0.0,VALID,95.478,VALID,0.016,VALID,20.515,INVALID,360.0,VALID,0.0,
2019-01-09, 02:52:07,VALID,917.131,VALID,0.0,VALID,95.375,VALID,0.01,VALID,20.542,INVALID,360.0,VALID,0.0,
2019-01-09, 02:53:07,VALID,917.105,VALID,0.0,VALID,95.312,VALID,0.003,VALID,20.547,INVALID,360.0,VALID,0.0,
2019-01-09, 02:54:07,VALID,917.09,VALID,0.0,VALID,95.317,VALID,-0.017,VALID,20.547,INVALID,360.0,VALID,0.0,
2019-01-09, 02:55:07,VALID,917.078,VALID,0.0,VALID,95.333,VALID,-0.008,VALID,20.539,INVALID,360.0,VALID,0.0,
2019-01-09, 02:56:07,VALID,917.059,VALID,0.0,VALID,95.344,VALID,-0.002,VALID,20.521,INVALID,360.0,VALID,0.0,
2019-01-09, 02:57:07,VALID,917.053,VALID,0.0,VALID,95.433,VALID,-0.007,VALID,20.499,INVALID,360.0,VALID,0.0,
2019-01-09, 02:58:07,VALID,917.031,VALID,0.0,VALID,95.538,VALID,0.002,VALID,20.477,INVALID,360.0,VALID,0.0,
2019-01-09, 02:59:07,VALID,916.994,VALID,0.0,VALID,95.624,VALID,-0.009,VALID,20.45,INVALID,360.0,VALID,0.0,
2019-01-09, 03:00:07,VALID,916.99,VALID,0.0,VALID,95.671,VALID,-0.01,VALID,20.412,INVALID,360.0,VALID,0.0,
2019-01-09, 03:01:07,VALID,916.973,VALID,0.0,VALID,95.864,VALID,-0.006,VALID,20.379,INVALID,360.0,VALID,0.0,
2019-01-09, 03:02:07,VALID,916.951,VALID,0.0,VALID,95.945,VALID,-0.004,VALID,20.331,INVALID,360.0,VALID,0.0,
2019-01-09, 03:03:07,VALID,916.935,VALID,0.0,VALID,96.118,VALID,-0.019,VALID,20.293,INVALID,360.0,VALID,0.0,
2019-01-09, 03:04:07,VALID,916.928,VALID,0.0,VALID,96.307,VALID,-0.011,VALID,20.267,INVALID,360.0,VALID,0.0,
2019-01-09, 03:05:07,VALID,916.916,VALID,0.0,VALID,96.451,VALID,0.006,VALID,20.24,INVALID,360.0,VALID,0.0,
2019-01-09, 03:06:07,VALID,916.924,VALID,0.0,VALID,96.581,VALID,-0.011,VALID,20.226,INVALID,360.0,VALID,0.0,
2019-01-09, 03:07:07,VALID,916.914,VALID,0.0,VALID,96.689,VALID,-0.004,VALID,20.217,INVALID,360.0,VALID,0.0,
2019-01-09, 03:08:07,VALID,916.906,VALID,0.0,VALID,96.804,VALID,0.001,VALID,20.234,INVALID,360.0,VALID,0.0,
2019-01-09, 03:09:07,VALID,916.907,VALID,0.0,VALID,96.863,VALID,0.011,VALID,20.279,INVALID,360.0,VALID,0.0,
2019-01-09, 03:10:07,VALID,916.913,VALID,0.0,VALID,96.676,VALID,-0.0,VALID,20.291,INVALID,360.0,VALID,0.0,
2019-01-09, 03:11:07,VALID,916.904,VALID,0.0,VALID,96.524,VALID,-0.008,VALID,20.294,INVALID,360.0,VALID,0.0,
2019-01-09, 03:12:07,VALID,916.899,VALID,0.0,VALID,96.539,VALID,-0.006,VALID,20.315,INVALID,360.0,VALID,0.0,
2019-01-09, 03:13:07,VALID,916.905,VALID,0.0,VALID,96.494,VALID,-0.004,VALID,20.353,INVALID,360.0,VALID,0.0,
2019-01-09, 03:14:07,VALID,916.883,VALID,0.0,VALID,96.279,VALID,-0.005,VALID,20.358,INVALID,360.0,VALID,0.0,
2019-01-09, 03:15:07,VALID,916.874,VALID,0.0,VALID,96.213,VALID,-0.012,VALID,20.371,INVALID,360.0,VALID,0.0,
2019-01-09, 03:16:07,VALID,916.858,VALID,0.0,VALID,96.08,VALID,-0.013,VALID,20.357,INVALID,360.0,VALID,0.0,
2019-01-09, 03:17:07,VALID,916.831,VALID,0.0,VALID,96.136,VALID,-0.01,VALID,20.352,INVALID,360.0,VALID,0.0,
2019-01-09, 03:18:07,VALID,916.848,VALID,0.0,VALID,96.119,VALID,-0.003,VALID,20.338,INVALID,360.0,VALID,0.0,
2019-01-09, 03:19:07,VALID,916.824,VALID,0.0,VALID,96.199,VALID,-0.013,VALID,20.344,INVALID,360.0,VALID,0.0,
2019-01-09, 03:20:07,VALID,916.812,VALID,0.0,VALID,96.207,VALID,-0.001,VALID,20.357,INVALID,360.0,VALID,0.0,
2019-01-09, 03:21:07,VALID,916.802,VALID,0.0,VALID,96.199,VALID,-0.015,VALID,20.367,INVALID,360.0,VALID,0.0,
2019-01-09, 03:22:07,VALID,916.786,VALID,0.0,VALID,96.141,VALID,-0.004,VALID,20.367,INVALID,360.0,VALID,0.0,
2019-01-09, 03:23:07,VALID,916.784,VALID,0.0,VALID,96.003,VALID,-0.006,VALID,20.349,INVALID,360.0,VALID,0.0,
2019-01-09, 03:24:07,VALID,916.763,VALID,0.0,VALID,96.001,VALID,-0.018,VALID,20.336,INVALID,360.0,VALID,0.0,
2019-01-09, 03:25:07,VALID,916.766,VALID,0.0,VALID,96.132,VALID,-0.007,VALID,20.34,INVALID,360.0,VALID,0.0,
2019-01-09, 03:26:07,VALID,916.754,VALID,0.0,VALID,96.166,VALID,-0.02,VALID,20.349,INVALID,360.0,VALID,0.0,
2019-01-09, 03:27:07,VALID,916.761,VALID,0.0,VALID,96.202,VALID,-0.007,VALID,20.386,INVALID,360.0,VALID,0.0,
2019-01-09, 03:28:07,VALID,916.738,VALID,0.0,VALID,96.053,VALID,-0.008,VALID,20.41,INVALID,360.0,VALID,0.0,
2019-01-09, 03:29:07,VALID,916.737,VALID,0.0,VALID,95.908,VALID,0.001,VALID,20.414,INVALID,360.0,VALID,0.0,
2019-01-09, 03:30:07,VALID,916.716,VALID,0.0,VALID,95.805,VALID,-0.009,VALID,20.393,INVALID,360.0,VALID,0.0,
2019-01-09, 03:31:07,VALID,916.687,VALID,0.0,VALID,95.884,VALID,-0.009,VALID,20.377,INVALID,360.0,VALID,0.0,
2019-01-09, 03:32:07,VALID,916.663,VALID,0.0,VALID,95.901,VALID,-0.016,VALID,20.367,INVALID,360.0,VALID,0.0,
2019-01-09, 03:33:07,VALID,916.638,VALID,0.0,VALID,96.097,VALID,-0.002,VALID,20.397,INVALID,360.0,VALID,0.0,
2019-01-09, 03:34:07,VALID,916.649,VALID,0.0,VALID,95.861,VALID,-0.01,VALID,20.374,INVALID,360.0,VALID,0.0,
2019-01-09, 03:35:07,VALID,916.62,VALID,0.0,VALID,96.0,VALID,-0.008,VALID,20.37,INVALID,360.0,VALID,0.0,
2019-01-09, 03:36:07,VALID,916.627,VALID,0.0,VALID,96.103,VALID,-0.014,VALID,20.385,INVALID,360.0,VALID,0.0,
2019-01-09, 03:37:07,VALID,916.632,VALID,0.0,VALID,96.057,VALID,-0.015,VALID,20.41,INVALID,360.0,VALID,0.0,